Regional Weather Roundup
Issued by NWS Portland, ME

Home | Current Version | Previous Version | Text Only | Print | Product List | Glossary On
Versions: 1 2 3 4 5 6 7 8 9 10 11 12 13 14 15 16 17 18 19 20 21 22 23 24 25 26 27 28 29 30 31 32 33 34 35 36 37 38 39 40 41 42 43 44 45 46 47 48 49 50
000
ASUS41 KGYX 301610
RWRGYX
WEATHER ROUNDUP FOR MAINE AND NEW HAMPSHIRE
NATIONAL WEATHER SERVICE GRAY ME
1200 PM EDT TUE SEP 30 2014

MEZ002-005-006-010-012-015-018-020-021-024-026-027-029-301700-
MAINE

CITY           SKY/WX    TMP DP  RH WIND       PRES   REMARKS
PORTLAND       CLOUDY    55  50  83 N5        30.06S
SANFORD        CLOUDY    55  48  76 N6        30.06R
BAR HARBOR     CLOUDY    52  50  93 N8        30.06F
WISCASSET      CLOUDY    55  49  80 E5        30.07S
ROCKLAND       CLOUDY    52  50  93 NE7       30.04F
FRYEBURG       CLOUDY    59  51  75 N6        30.05F
LEWISTONAUBURN CLOUDY    54  48  82 N6        30.07R
AUGUSTA        CLOUDY    53  47  79 N7        30.07F
WATERVILLE     CLOUDY    52  45  76 NE8       30.03F
BANGOR         CLOUDY    52  47  83 N7        30.08F
GREENVILLE       N/A     54  48  80 VRB5      30.05S
MILLINOCKET    CLOUDY    49  46  90 CALM      30.11S
HOULTON        CLOUDY    52  44  74 VRB3      30.08F
PRESQUE ISLE   CLOUDY    46  41  81 CALM      30.10F
FRENCHVILLE    CLOUDY    41  40  96 NE3       30.10F FOG
CARIBOU        CLOUDY    46  43  89 CALM      30.10F
$$

NHZ002-005-008-009-011-012-014-301700-
NEW HAMPSHIRE

CITY           SKY/WX    TMP DP  RH WIND       PRES   REMARKS
PORTSMOUTH     CLOUDY    55  53  92 N6        30.04S
ROCHESTER      CLOUDY    56  52  86 VRB3      30.05R
NASHUA         CLOUDY    57  54  90 E6        30.05S
MANCHESTER     CLOUDY    56  52  86 E7        30.03S FOG
CONCORD        CLOUDY    59  53  80 E5        30.03F
LACONIA        CLOUDY    59  50  72 E8        30.03S
PLYMOUTH       CLOUDY    60  56  85 CALM      30.03F
BERLIN         CLOUDY    59  51  75 VRB3      30.04F
WHITEFIELD     SUNNY     65  54  67 CALM      30.02S
JAFFREY        CLOUDY    57  53  86 VRB6      30.04S
LEBANON        CLOUDY    62  53  72 CALM      30.01F
MT WASHINGTON  PTSUNNY   46  45  93 W6          N/A  VSB 1/2
$$

VTZ005-007-008-301700-
VERMONT

CITY           SKY/WX    TMP DP  RH WIND       PRES   REMARKS
ST JOHNSBURY     N/A     60  53  77 MISG      30.01S
MONTPELIER     CLOUDY    58  54  86 S9        30.06S
BURLINGTON     PTSUNNY   69  56  62 VRB5      29.97F
$$

MAZ007-012-024-CTZ003-RIZ002-NYZ038-NYZ072-301700-
SOUTHERN NEW ENGLAND AND NY

CITY           SKY/WX    TMP DP  RH WIND       PRES   REMARKS
BOSTON         LGT RAIN  56  55  97 N8        30.04F
WORCESTER      CLOUDY    54  53  97 VRB5      30.03S
NANTUCKET      CLOUDY    64  61  90 N10       29.98F
PROVIDENCE     LGT RAIN  58  56  93 NE10      30.02S
HARTFORD       CLOUDY    61  54  77 N8        30.00F
ALBANY         PTSUNNY   69  57  65 VRB7      29.96F
NEW YORK CITY  CLOUDY    68  60  75 NE15G25   29.95S
$$

ANZ081-ANZ082-ANZ150-NHZ014-MEZ023>029-301700-
COASTAL MARINE OBSERVATIONS

STATION/POSITION TIME  TEMP    WIND        PRES    WAVE
                       AIR SEA DIR/SP/G            HT/PER
                 (UTC) (F)     (DEG/KT/KT) (MB)    (FT/S)
MOUNT DESERT ROC 1600   53                 1016.9
MATINICUS ROCK   1500           50/ 17/ 19 1016.9F
PORTLAND WX BUOY 1550   54 59   40/ 10/ 12 1017.5F   3/ 7
WELLS            1500   54 57  360/  5/  7 1016.9F
ISLE OF SHOALS   1500   54      30/ 16/ 18 1016.7F
JEFFREYS LEDGE   1521      59                N/A     6/ 8
CASHES LEDGE BUO 1550   55 60              1015.8F   6/ 6
$$

.............KEY..............
   WCI - WIND CHILL
   TC  - TEMPERATURE IN CELSIUS
   VSB - VISIBILITY IN MILES
   HX  - HEAT INDEX
   FAIR- INDICATES FEW OR NO CLOUDS BELOW 12,000 FT, WITH NO
         SIGNIFICANT WEATHER AND/OR OBSTRUCTIONS TO VISIBILITY.




USA.gov is the U.S. government's official web portal to all federal, state and local government web resources and services.